Orbital Elements at Epoch 2459200.5 (2020-Dec-17.0) TDB
Reference: JPL 16 (heliocentric ecliptic J2000)
Element | Value | Uncertainty (1-sigma) | Units |
e | .1392536730566079 | 3.5837e-08 | |
a | 2.389471918997245 | 1.2318e-08 | au |
q | 2.056729177611258 | 8.8736e-08 | au |
i | 7.209041930845389 | 5.0109e-06 | deg |
node | 102.4873314256059 | 3.1378e-05 | deg |
peri | 293.5043068479947 | 3.6424e-05 | deg |
M | 279.5256837111714 | 2.0351e-05 | deg |
tp | 2459502.082487007532 (2021-Oct-14.58248701) | 7.7433e-05 | TDB |
period | 1349.122307955329 3.69 | 1.0432e-05 2.856e-08 | d yr |
n | .2668401507240661 | 2.0633e-09 | deg/d |
Q | 2.722214660383233 | 1.4033e-08 | au |
|
| | Orbit Determination Parameters
Additional Information
|